sat.trackr.live / text

‹ back to catalog

STARLINK-3936

NORAD 52674 · 2022-053U

PAYLOAD ACTIVE UNKNOWN

§ Identity

Operator
Country
US
Launch date
2022-05-18
Launch site
AFETR
Launch vehicle
Mass (kg)
RCS (m²)

Purposes: comms

External: N2YO · Heavens-Above · Gunter

§ Orbital elements

Epoch: 2026-09-20T04:00:03.000096Z

Period
94.15 min
Inclination
53.1597°
Eccentricity
0.0000865
Mean motion
15.29459593 rev/d
Perigee alt
476.8 km
Apogee alt
478.0 km
Semi-major
6,855.6 km
B*
2.4269e-3
RAAN
326.8269°
Arg perigee
102.4067°
Mean anomaly
240.0645°
Rev number
568

§ Raw data

STARLINK-39361 52674U 22053U   26263.16670139  .00070566  00000+0  24269-2 0  99962 52674  53.1597 326.8269 0000865 102.4067 240.0645 15.29459593  5683

JSON: /api/v1/satellites/52674 · /tle

For live sub-satellite position, see the globe view (requires WebGL).

§ Visibility from observer

Set your observer location to see the next 7 days of passes ≥ 10°. The values pass through the URL so the page stays shareable.

No JS? Fill the form by hand. The geolocation button needs JavaScript.